www.pogodaiklimat.ru

Погода и климат >> Архив погоды >> Беларусь >> Минск


АРХИВ ПОГОДЫ в Минске

Время (UTC), дата Ветер
(напр.,м/с)
 
Видим.   Явления Облачность Т
(С)
Тd
(С)
f
(%)
Тe
(С)
Тes
(С)
Комфортность P
(гПа)
Po
(гПа)
Тmin
(С)
Tmax
(С)
R
(мм)
R24
(мм)
S
(см)
18 16.08 СВ 1 12 км 8/0
[Ac trans]
+15.7 +14.1 90 +16 +16 прохладно 1016.0 988.9 +21.3
21 16.08 СЗ 1 10 км 8/0
[Ac trans]
+11.9 +11.3 96 +12 +12 прохладно 1016.9 989.4
00 17.08 СВ 1 10 км ясно +9.6 +9.1 97 +9 +9 холодно 1017.4 989.6
03 17.08 штиль 0 10 км 3/0
[Ci fib]
+8.2 +7.8 97 +7 +7 очень
холодно
1017.3 989.4
06 17.08 В 2 15 км 4/0
[Ci fib]
+17.7 +12.8 73 +18 +22 тепло 1016.7 989.7 +8.1
09 17.08 СВ 2 13 км 6/6 1170 м
[Cu med, cong]
+19.9 +10.0 53 +22 +26 комфорт 1016.1 989.3
12 17.08 С 2 15 км 8/8 1300 м
[Cu med, cong]
+21.4 +9.9 48 +23 +25 комфорт 1014.8 988.2
15 17.08 С 2 15 км 6/6 1200 м
[Cu hum]
+21.6 +9.8 47 +23 +24 комфорт 1014.3 987.7
18 17.08 С 1 13 км ясно +13.8 +11.7 87 +14 +14 холодно 1015.1 987.8 +22.0
21 17.08 С 1 12 км ясно +10.2 +9.6 96 +10 +10 холодно 1015.0 987.3
00 18.08 штиль 0 15 км ясно +8.3 +7.9 97 +7 +7 холодно 1015.2 987.3
03 18.08 штиль 0 8000 м дымка 3/0
[Ac trans]
+7.3 +6.9 97 +6 +6 очень
холодно
1014.6 986.6
06 18.08 С 1 14 км ясно +17.5 +12.0 70 +19 +24 тепло 1013.2 986.3 +7.2
09 18.08 СЗ 2 15 км ясно +21.4 +8.7 44 +23 +34 комфорт 1012.8 986.2
12 18.08 СЗ 3 15 км 3/3 1000 м
[Cu hum]
+23.4 +10.1 43 +25 +31 комфорт 1012.5 986.1
15 18.08 СЗ 2 14 км 3/3 1000 м
[Cu hum]
+24.4 +10.7 42 +26 +27 жарко 1012.5 986.2
18 18.08 штиль 0 12 км 3/0
[Ac trans]
+15.6 +13.3 86 +15 +15 прохладно 1013.8 986.7 +24.8
21 18.08 С 1 10 км ясно +13.1 +12.2 94 +13 +13 прохладно 1014.7 987.3
00 19.08 С 1 12 км ясно +11.9 +11.3 96 +12 +12 по сезону 1014.8 987.3
03 19.08 С 1 10 км 3/0
[Ci fib]
+11.4 +10.9 97 +11 +11 прохладно 1015.3 987.7
06 19.08 Ю 2 15 км 4/0
[Ci fib]
+20.0 +14.4 70 +23 +27 комфорт 1014.7 988.0 +11.2
09 19.08 ЮЗ 4 20 км 3/0
[Ci fib]
+25.7 +16.6 57 +29 +36 душно 1014.6 988.4
12 19.08 ЮЗ 4 20 км 6/0
[Ac trans]
+25.7 +16.6 57 +29 +36 душно 1014.6 988.4
15 19.08 ЮЗ 5 20 км ясно +28.0 +17.2 52 +32 +33 душно 1015.2 989.2
18 19.08 Ю 1 15 км 6/0
[Ac trans]
+22.8 +18.1 75 +28 +28 душно 1016.4 989.9 +28.5
21 19.08 Ю 1 10 км 3/0
[Ci fib]
+19.6 +18.1 91 +23 +23 комфорт 1017.0 990.2
00 20.08 С 1-11
{11}
5000 м гроза, ливневой дождь 10/10 960 м
[Cb cap]
+18.8 +18.3 97 +21 +21 комфорт 1019.0 992.1
03 20.08 ЮВ 1 10 км в посл. час ливневой дождь {гроза} 10/10 960 м
[Cb cap]
+17.6 +17.3 98 +19 +19 тепло 1019.4 992.4
06 20.08 Ю 1 10 км {гроза, ливн. осадки} 8/6 930 м
[Sc Ac trans]
+18.5 +17.7 95 +20 +22 тепло 1020.4 993.4 +17.5 20
09 20.08 З 1 10 км в посл. час ливневой дождь 9/8 570 м
[Sc Ac trans]
+21.0 +18.2 84 +26 +28 душно 1021.4 994.6
12 20.08 З 2 14 км {ливн. осадки} 8/8 870 м
[Cu hum Ac trans]
+22.4 +17.8 75 +27 +29 душно 1022.1 995.4
15 20.08 З 2 17 км 8/6 1080 м
[Cu med, cong Ci fib]
+23.7 +17.4 68 +28 +29 душно 1022.2 995.7
18 20.08 С 1 15 км 4/3 1140 м
[Sc Ac trans]
+19.0 +18.0 94 +22 +22 комфорт 1023.2 996.2 +24.4 0.0
21 20.08 СВ 1 10 км 8/0
[Ac As]
+17.9 +17.3 96 +19 +19 тепло 1023.6 996.5
00 21.08 СВ 1 10 км 8/0
[Ac trans]
+18.0 +17.5 97 +19 +19 тепло 1023.3 996.2
03 21.08 СВ 2 3500 м дымка 10/10 240 м
[Frnb]
+17.8 +17.5 98 +18 +18 тепло 1022.3 995.2
06 21.08 В 2 14 км {туман} 8/4 800 м
[Sc Ac trans]
+20.8 +18.6 87 +26 +27 душно 1021.3 994.5 +17.4
09 21.08 ЮВ 2 14 км 9/0
[Ac trans]
+24.6 +19.7 74 +30 +35 очень
душно
1019.2 992.8
12 21.08 Ю 4
{10}
13 км 6/0
[Ac trans]
+29.3 +17.8 50 +34 +38 очень
душно
1016.8 990.9
15 21.08 З 3
{10}
12 км 8/0
[Ac trans]
+26.7 +18.0 59 +31 +32 душно 1016.9 990.8
18 21.08 СЗ 5 12 км 10/10 450 м
[Sc]
+16.4 +13.5 83 +15 +15 прохладно 1021.1 993.9 +29.6
21 21.08 СЗ 3
{10}
11 км 10/10 330 м
[Sc]
+14.9 +13.3 90 +14 +14 по сезону 1023.6 996.2
00 22.08 СЗ 3 12 км 9/9 300 м
[Sc]
+14.4 +12.1 86 +13 +13 по сезону 1025.3 997.8
03 22.08 СЗ 1 14 км 6/0
[Ac trans Ci fib]
+12.0 +10.7 92 +12 +12 по сезону 1027.0 999.2
06 22.08 СЗ 3 19 км 8/6 540 м
[Sc Ci fib]
+14.8 +11.8 82 +14 +15 по сезону 1028.2 1000.6 +11.8
09 22.08 СВ 3 15 км 4/4 600 м
[Cu med, cong]
+18.5 +11.3 63 +19 +25 тепло 1028.6 1001.4
12 22.08 С 3 18 км 8/5 900 м
[Cu hum Ci fib]
+20.5 +10.6 53 +23 +26 комфорт 1028.4 1001.3
15 22.08 С 2 19 км 8/3 1000 м
[Sc Ci fib]
+20.4 +10.5 53 +23 +24 комфорт 1028.1 1001.0
18 22.08 С 1 13 км 8/0
[Ac trans Ci fib]
+13.6 +12.2 91 +14 +14 прохладно 1029.1 1001.4 +21.0
21 22.08 С 1 12 км ясно +10.6 +10.0 96 +10 +10 холодно 1030.0 1002.0
00 23.08 штиль 0 11 км 6/0
[Ci fib]
+9.3 +8.8 97 +8 +8 холодно 1030.7 1002.5
03 23.08 штиль 0 10 км 3/0
[Ac trans]
+7.4 +7.0 97 +6 +6 очень
холодно
1031.2 1002.8
06 23.08 штиль 0 10 км 3/0
[Ac trans]
+17.0 +12.7 76 +17 +21 тепло 1030.8 1003.4 +7.2
09 23.08 СВ 2 17 км 8/8 900 м
[Cu hum]
+19.7 +10.1 54 +21 +24 комфорт 1030.6 1003.4
12 23.08 С 2 18 км 4/4 1000 м
[Cu hum]
+21.4 +9.3 46 +23 +29 комфорт 1029.4 1002.4
15 23.08 СВ 1 18 км 3/3 1200 м
[Sc]
+21.7 +9.6 46 +23 +25 комфорт 1028.2 1001.2

 

Местоположение метеостанции Минск (город Минск, Беларусь): широта 53.96 долгота 27.70 высота над уровнем моря 231 м.

В архиве по умолчанию представлена погода в Минске за последнюю неделю. Архивные данные за месяц целиком и за предыдущие месяцы, начиная с января 2011 года, Вы можете получить, выбрав интересующий диапазон дат из раскрывающегося списка и нажав кнопку "Ввод!".


*Определитесь, кто Вы:
робот инопланетянин человек

Внимание! Время в таблицах - всемирное. Для получения местного времени необходимо прибавить поправку, которая равна 3 ч.

Смотрите также архив погоды в соседних городах и на ближайших метеорологических станциях:

Погода в Борисове (Минская область, Беларусь) (63 км)
Погода в Марьиной Горке (Минская область, Беларусь) (63 км)
Погода в Вилейке (Минская область, Беларусь) (77 км)
Погода в Воложине (Минская область, Беларусь) (78 км)
Погода в Столбцах (Минская область, Беларусь) (83 км)
Погода в Березино (Минская область, Беларусь) (86 км)
Погода в Березинском Заповеднике (Минская область, Беларусь) (95 км)
Погода в Докшицах (Витебская область, Беларусь) (102 км)
Погода в Слуцке (Минская область, Беларусь) (104 км)
Погода в Кличеве (Могилевская область, Беларусь) (118 км)

Пояснения к столбцам:

Ветер - указаны скорость ветра в м/с - средняя за 10 мин, порывы в срок и между сроками (в фигурных скобках) и направление, откуда дует ветер: С - северный, СВ - северо-восточный, В - восточный, ЮВ - юго-восточный, Ю - южный, ЮЗ - юго-западный, З - западный, СЗ - северо-западный.
Видимость - горизонтальная дальность видимости в метрах или километрах. При видимости от 1 до 10 км при отсутствии осадков обычно наблюдается дымка, при ухудшении видимости до 1 км и менее - туман. В сухую погоду видимость может ухудшаться дымом, пылью или мглою.
Явления - указаны атмосферные явления, наблюдавшиеся в срок или в последний час перед сроком; фигурными скобками обозначены явления, наблюдавшиеся между сроками (за 1-3 часа до срока); квадратными скобками обозначены град или гололедные отложения с указанием их диаметра в мм.
Облачность - указаны через наклонную черту общая и нижняя облачность в баллах и высота нижней границы облаков в метрах; квадратными скобками обозначены формы облаков: Ci - перистые, Cs - перисто-слоистые, Cc - перисто-кучевые, Ac - высококучевые, As - высокослоистые, Sc - слоисто-кучевые, Ns - слоисто-дождевые, Cu - кучевые, Cb - кучево-дождевые. Подробнее классификацию облаков см. в Атласе облаков (PDF).
T - Температура воздуха - температура, измеренная на высоте 2 м над землей.
Td - Температура точки росы - температура, при понижении до которой содержащийся в воздухе водяной пар достигнет насыщения.
f - Относительная влажность воздуха - влажноcть воздуха, измеренная на высоте 2 м над землей.
Te - Эффективная температура - температура, которую ощущает одетый по сезону человек в тени. Характеристика душности погоды. При расчете учитывается влияние влажности воздуха и скорости ветра на теплоощущения человека.
Tes - Эффективная температура на солнце - температура, которую ощущает человек, с поправкой на солнечный нагрев. Характеристика знойности погоды. Зависит от высоты солнца над горизонтом, облачности и скорости ветра. Ночью, в пасмурную погоду, а также при ветре 12 м/с и более поправка равна нулю.
P - Атмосферное давление - приведенное к уровню моря атмосферное давление.
Po - Атмосферное давление - измеренное на уровне метеостанции атмосферное давление.
Tmin - Минимальная температура - минимум температуры воздуха на высоте 2 м над землей.
Tmax - Максимальная температура - максимум температуры воздуха на высоте 2 м над землей.
R - Количество осадков - Количество выпавших осадков за период времени, мм. При наведении курсора мыши на число - период времени, за который выпало указанное количество осадков.
R24 - Количество осадков - Количество выпавших осадков за 24 часа, мм.
S - Снежный покров - Высота снежного покрова, см. При наведении курсора мыши на число - состояние снежного покрова и степень покрытия местности в баллах.